カーディナル彗星

C/2008 T2 ( Cardinal )

English version
Home page
Total 6,336 html files since Dec. 4, 1995
Updated on November 30, 2008

---------------------------------------------------------------------

・ プロフィール

発見日 2008年10月1日
発見光度 16.0等
発見者 Rob D. Cardinal (University of Calgary, Priddis)

・ 写真集

・ 軌道要素

T 2009 June 13.2632 TT                                  MPC
q   1.202195             (2000.0)            P               Q
                   Peri.  215.8750      -0.7676146      +0.0282184
                   Node   309.6825      +0.5756107      -0.4089861
e   1.0            Incl.   56.3030      -0.2818512      -0.9121042
From 205 observations 2008 Oct. 6-Nov. 23.

・ 星図

・ 光度変化

        m1 = 7.5 + 5 logΔ + 10.0 log r

---------------------------------------------------------------------

軌道要素はM.P.E.C. 2008-W74に掲載されたものです。
星図はステラナビゲータ Ver.8 (アストロアーツ) で作成したものです。
光度グラフはComet for Windowsで作成したものです。

---------------------------------------------------------------------

Copyright(C) 1995-2008 Seiichi Yoshida (comet@aerith.net). All rights reserved.